Location: Hiram
(41.3130°N, 81.1440°W)
Time: 12:09:25
(UTC-04:00)

Daily predictions for brighter satellites

Satellite Brightness Start Highest point End
(mag) Time Altitude Azimuth Time Altitude Azimuth Time Altitude Azimuth
H-2A R/B 3.1 21:15:02 10° S 21:18:57 70° WSW 21:22:55 10° NNW
Okean 2 3.4 21:16:12 10° S 21:20:20 67° E 21:24:30 10° NNE
GEOS 3 Rocket 3.8 21:15:56 10° SSE 21:21:12 75° SW 21:26:26 10° NW
Cosmos 1892 Rocket 3.7 21:16:46 10° S 21:21:13 83° W 21:25:43 10° N
Aureole 2 Rocket 2.6 21:21:57 10° S 21:25:51 67° ESE 21:29:25 10° NNE
Cosmos 1331 Rocket 4.3 21:20:57 10° NNW 21:26:09 71° WSW 21:31:16 10° S
SeaSat 1 3.3 21:25:00 10° ESE 21:29:31 37° NE 21:34:03 10° N
Cosmos 1302 Rocket 4.0 21:31:51 10° NNW 21:37:07 86° ENE 21:42:22 10° SSE
USA 186 3.6 21:35:15 10° SSW 21:37:39 25° W 21:39:58 10° NW
CZ-2C R/B 1.5 21:37:19 10° S 21:39:31 42° W 21:41:45 10° NNW
DEBRIS 2.6 21:37:49 10° WNW 21:43:49 80° SW 21:45:48 15° SE
Cosmos 2278 Rocket 4.4 21:40:07 10° NW 21:44:26 23° W 21:48:44 10° SSW
Cosmos 1461 2.9 21:41:49 10° NNW 21:46:08 88° ENE 21:49:44 13° SSE
ATLAS 3B R/B 3.7 21:43:52 10° SSE 21:50:18 30° ESE 21:56:39 10° NE
Tsikada Rocket 4.1 21:45:54 10° S 21:52:14 66° E 21:58:33 10° NNE
ARGOS 4.2 21:51:45 13° ESE 21:55:44 31° ENE 22:00:27 10° N
Cosmos 2369 Rocket 3.2 21:52:29 10° N 21:57:35 33° ENE 22:01:39 14° ESE
Cosmos 1666 3.5 21:57:35 10° NNW 22:01:23 51° W 22:05:10 10° S
APEX 4.5 21:57:49 10° NW 22:01:52 49° WSW 22:07:05 10° S
ERS-1 Rocket 3.9 21:58:52 10° S 22:03:40 47° W 22:08:32 10° NNW
Cosmos 1602 Rocket 3.7 21:59:27 10° S 22:03:56 80° W 22:08:25 10° N
Abrixas rocket 3.7 22:01:18 10° W 22:04:17 28° SW 22:06:15 17° S
SL-16 R/B 3.9 22:00:07 10° SW 22:05:19 37° WNW 22:10:33 10° N
Atlas Centaur 2 3.6 21:59:43 10° SW 22:06:24 35° S 22:12:43 14° ESE
USA 234 3.6 22:01:10 13° ESE 22:07:02 62° NE 22:13:30 10° NW
Cosmos 1825 Rocket 4.3 22:05:59 18° SSE 22:08:45 36° E 22:12:49 10° NNE
Envisat 3.1 22:05:31 11° S 22:10:27 79° WSW 22:15:34 10° NNW
MetOp-B 4.2 22:07:00 15° SSE 22:11:23 71° ENE 22:16:44 10° N
Cosmos 407 Rocket 4.4 22:11:19 19° SE 22:13:58 28° E 22:18:24 10° NE
Cosmos 1812 Rocket 3.5 22:10:16 10° N 22:14:41 88° W 22:18:12 16° S
ISS -3.5 22:12:43 10° SW 22:15:57 68° SE 22:19:12 10° ENE
PSLV R/B 3.3 22:16:56 10° WSW 22:20:28 70° SSE 22:22:59 18° E
Cosmos 1939 Rocket 4.0 22:16:56 10° S 22:20:52 42° W 22:24:50 10° NNW
CZ-4 R/B 4.3 22:16:16 10° NNE 22:21:05 46° E 22:24:19 20° SSE
SL-08 RB Rocket 4.3 22:21:16 23° SE 22:23:37 40° ENE 22:27:52 10° N
H-2A R/B 3.9 22:23:43 10° SSW 22:27:19 27° W 22:31:02 10° NW
SPOT 5 3.1 22:24:58 14° S 22:28:35 55° W 22:32:51 10° NNW
Lacrosse 5 rocket 4.4 22:27:43 10° WNW 22:30:04 15° NNW 22:32:29 10° NNE
Cosmos 1953 4.4 22:27:58 10° NE 22:30:06 14° ENE 22:30:51 13° E
Cosmos 1634 Rocket 4.0 22:24:30 10° N 22:30:39 66° E 22:34:40 23° SSE
COSMOS 2455 2.9 22:25:01 10° SSW 22:31:01 84° WNW 22:37:05 10° NNE
Cosmos 1515 3.7 22:28:51 17° S 22:31:45 85° W 22:35:38 10° N
USA 245 4.2 22:28:23 20° SSE 22:32:39 81° ENE 22:37:50 10° N
Cosmos 1603 4.5 22:28:46 10° SW 22:34:14 53° WNW 22:39:45 10° NNE
USA 81 4.0 22:29:09 10° N 22:34:27 74° E 22:37:42 24° SSE
Cosmos 1066 Rocket 4.2 22:30:02 17° S 22:34:29 67° E 22:40:15 10° NNE
BREEZE-M DEB (TANK) 4.2 22:34:13 10° WSW 22:35:17 13° SW 22:35:27 12° SW
YAOGAN 6 2.8 22:39:45 29° S 22:41:30 70° W 22:45:15 10° NNW
Terra 2.7 22:43:54 27° ESE 22:45:38 36° ENE 22:49:58 10° N
Cosmos 1992 Rocket 4.1 22:42:30 10° NNW 22:47:43 74° WSW 22:50:30 28° S
Cosmos 1346 Rocket 2.6 22:48:52 39° S 22:50:13 74° E 22:54:09 10° NNE
IGS 5A 4.4 22:51:07 30° E 22:52:04 33° ENE 22:55:50 10° N
Cosmos 2279 Rocket 4.2 22:47:51 10° N 22:54:01 58° E 22:56:57 31° SE
Cosmos 1953 Rocket 3.5 22:52:36 31° S 22:54:42 86° E 22:59:10 10° N
Cosmos 1943 3.2 22:51:57 10° SSW 22:57:37 82° WNW 23:03:21 10° NNE
H-2A R/B 2.2 22:57:40 35° SE 22:59:26 53° ENE 23:04:21 10° N
Cosmos 1943 Rocket 2.8 22:57:21 10° N 23:02:37 42° ENE 23:04:49 29° ESE
Geosat 3.9 22:58:37 10° NNE 23:03:39 74° ESE 23:06:36 25° SSW
Cosmos 1842 3.6 23:04:02 46° ESE 23:04:11 46° E 23:07:58 10° NNE
Lacrosse 4 Rocket 1.2 23:03:03 35° SSW 23:04:41 84° ESE 23:08:47 10° NNE
SAR-Lupe-2 3.6 23:05:25 57° E 23:05:42 60° ENE 23:09:15 10° N
Meteor 1-21 4.2 23:03:33 31° S 23:06:27 73° E 23:12:16 10° NNE
SeaSat 1 3.9 23:04:20 18° SSW 23:07:03 30° WSW 23:11:21 10° NW
Cosmos 1190 Rocket 4.2 23:03:10 14° SSW 23:07:47 74° WNW 23:13:08 10° NNE
SPOT 1/Viking Rocket 4.2 23:05:20 23° SSW 23:08:15 48° W 23:13:15 10° NNW
Cosmos 1900 4.3 23:07:02 23° SSW 23:10:15 76° ESE 23:15:24 10° NE
Cosmos-2242 3.3 23:06:39 10° N 23:10:57 51° E 23:11:38 46° ESE
Cosmos 1758 3.9 23:12:09 10° N 23:16:06 43° ENE 23:16:19 43° E
Cosmos 676 Rocket 4.0 23:21:48 31° SSW 23:24:23 87° WNW 23:29:46 10° NNE
DMSP B5D2-2 4.0 23:19:22 10° NNE 23:24:40 73° ESE 23:26:13 46° S
Cosmos 1766 3.5 23:21:58 10° NNW 23:25:56 64° W 23:26:30 56° SW
Cosmos 1758 Rocket 4.3 23:27:03 29° SW 23:28:54 49° W 23:33:09 10° N
Cosmos 1140 Rocket 3.7 23:28:55 49° SE 23:29:28 51° ESE 23:34:33 10° NNE
CARTOSAT-1 3.6 23:31:25 59° SSW 23:32:05 71° WSW 23:36:25 10° NNW
ARGOS 4.3 23:33:16 23° SW 23:35:51 35° W 23:40:50 10° NNW
ATLAS 3B R/B 3.3 23:33:00 10° SW 23:40:38 64° NW 23:48:07 10° NNE
Cosmos 2369 Rocket 3.2 23:36:28 10° NW 23:41:36 36° WSW 23:43:27 29° SW
USA 234 3.9 23:48:30 34° SSW 23:50:11 39° SW 23:56:17 10° WNW
ISS -0.7 23:50:01 10° WNW 23:52:40 22° NNW 23:55:18 10° NE
SL-27 R/B 3.5 23:54:51 43° NNW 23:54:51 43° NNW 23:57:24 10° N
Cosmos 1470 3.8 23:50:48 10° N 23:53:49 37° NE 23:53:49 37° NE
